This is the latest recevied weather packets stored in our database for station/object KS5S. If no packets are shown the sender has not sent any weather packets the latest 10 day(s).
| Time | Temp. | Humidity | Pressure | Rain* | Wind** | Luminosity | Snow |
|---|---|---|---|---|---|---|---|
| 1777594659 | 15.56° C | 96% | 1011.8 hPa | 0 mm | - | 30 W/m² | - |
| 1777594356 | 15.56° C | 96% | 1011.9 hPa | 0 mm | - | 28 W/m² | - |
| 1777594052 | 15.56° C | 96% | 1011.7 hPa | 0 mm | - | 27 W/m² | - |
| 1777593748 | 15.56° C | 96% | 1011.5 hPa | 0 mm | - | 29 W/m² | - |
| 1777593444 | 15.56° C | 96% | 1011.7 hPa | 0 mm | - | 34 W/m² | - |
| 1777593142 | 15.56° C | 96% | 1011.9 hPa | 0 mm | - | 43 W/m² | - |
| 1777592842 | 15.56° C | 96% | 1011.5 hPa | 0 mm | - | 56 W/m² | - |
| 1777592539 | 15.56° C | 96% | 1011.5 hPa | 0 mm | - | 54 W/m² | - |
| 1777592234 | 15.56° C | 96% | 1011.3 hPa | 0 mm | - | 44 W/m² | - |
| 1777591931 | 15.56° C | 96% | 1011.3 hPa | 0 mm | - | 46 W/m² | - |
| 1777591627 | 15.56° C | 96% | 1011.1 hPa | 0 mm | - | 98 W/m² | - |
| 1777591323 | 15° C | 96% | 1011.2 hPa | 0 mm | - | 60 W/m² | - |
| 1777591019 | 15° C | 96% | 1011 hPa | 0 mm | - | 44 W/m² | - |
| 1777590714 | 15° C | 96% | 1010.9 hPa | 0 mm | - | 45 W/m² | - |
| 1777590410 | 15° C | 96% | 1010.7 hPa | 0 mm | - | 87 W/m² | - |
| 1777590108 | 15° C | 96% | 1010.9 hPa | 0 mm | - | 72 W/m² | - |
| 1777589804 | 15° C | 96% | 1010.9 hPa | 0 mm | - | 52 W/m² | - |
| 1777589504 | 15° C | 96% | 1010.8 hPa | 0 mm | - | 73 W/m² | - |
| 1777589198 | 15° C | 96% | 1010.6 hPa | 0 mm | - | 67 W/m² | - |
| 1777588895 | 15° C | 96% | 1010.6 hPa | 0 mm | - | 44 W/m² | - |
| 1777588591 | 15° C | 96% | 1010.3 hPa | 0 mm | - | 49 W/m² | - |
| 1777588286 | 15° C | 96% | 1010.3 hPa | 0 mm | - | 76 W/m² | - |
| 1777587982 | 15° C | 96% | 1010.3 hPa | 0 mm | - | 98 W/m² | - |
| 1777587677 | 15° C | 96% | 1010.3 hPa | 0 mm | - | 65 W/m² | - |
| 1777587372 | 15.56° C | 96% | 1010.3 hPa | 0 mm | - | 50 W/m² | - |
* Rain latest hour (hover to see other rain measurements)
** Current wind speed in m/s (hover to see current wind gust speed)